Regional Weather Roundup
Issued by NWS

Home | Current Version | Previous Version | Text Only | Print | Product List | Glossary Off
Versions: 1 2 3 4 5 6 7 8 9 10 11 12 13 14 15 16 17 18 19 20 21 22 23 24 25 26 27

000
ASUS45 KBOI 261610
RWRID

IDAHO REGIONAL WEATHER ROUNDUP
NATIONAL WEATHER SERVICE BOISE ID
900 AM MST SUN FEB 26 2017

NOTE: "FAIR" INDICATES FEW OR NO CLOUDS BELOW 12000 FEET
WITH NO SIGNIFICANT WEATHER AND/OR OBSTRUCTIONS TO VISIBILITY

IDZ012-014-261700-
SOUTHWEST IDAHO


CITY           SKY/WX    TMP DP  RH WIND       PRES   REMARKS
BOISE          PTSUNNY   31  17  56 SE22      29.82S WCI  18
CALDWELL       PTSUNNY   31  19  61 SE13      29.84S WCI  21
MOUNTAIN HOME  MOSUNNY   26  18  71 E20       29.85S WCI  12
$$

IDZ016-017-261700-
SOUTHCENTRAL IDAHO


CITY           SKY/WX    TMP DP  RH WIND       PRES   REMARKS
BURLEY         MOSUNNY   28  11  48 S18       29.84F WCI  15
JEROME           N/A    N/A N/A N/A MISG      29.86S
TWIN FALLS     MOSUNNY   24  11  57 S14       29.83F WCI  12
$$

IDZ019>023-261700-
SOUTHEAST IDAHO


CITY           SKY/WX    TMP DP  RH WIND       PRES   REMARKS
IDAHO FALLS    CLOUDY    13  10  88 NW3       29.87S
POCATELLO      CLOUDY    10   6  84 N5        29.88S WCI   2
REXBURG        LGT SNOW   9   7  92 E3        29.86F FOG
$$

IDZ006-010-011-018-031-032-261700-
CENTRAL IDAHO MOUNTAINS


CITY           SKY/WX    TMP DP  RH WIND       PRES   REMARKS
MCCALL         LGT SNOW  21  16  81 SE10      29.68S WCI  10
HAILEY         MOSUNNY   12   5  73 NW12      29.82S WCI  -2
STANLEY          N/A     12   8  84 CALM      29.69S
SALMON         CLOUDY    27  10  50 S10       29.76S WCI  17
CHALLIS        CLOUDY    19   9  65 N5        29.74S WCI  12
$$

IDZ002-004-006-007-026-261700-
NORTHERN IDAHO


CITY           SKY/WX    TMP DP  RH WIND       PRES   REMARKS
LEWISTON       LGT SNOW  33  30  88 CALM      29.79S VSB 1
LOWELL           N/A     32  29  88 CALM      29.83S
COEUR D`ALENE  LGT SNOW  29  28  96 CALM      29.74S FOG
MULLAN PASS    LGT SNOW  16  14  92 CALM      29.56R FOG
$$




USA.gov is the U.S. government's official web portal to all federal, state and local government web resources and services.